カタログに戻る

STARLINK-5611

運用中通信VLEO
NORAD 55761·PAYLOAD·🇺🇸 United States

打ち上げ Mar 3, 2023 から Vandenberg Space Force Base

Loading…

次のパス (今後24時間)

TLE

最新Source: CelesTrak SupGP

元期: Sep 15, 2026, 02:49 UTC

1 55761C 23028W   26258.11784722 -.00018762  00000+0 -15722-2 0  2586
2 55761  69.9996 107.0280 0002703 272.7268  65.9809 14.98342348    12

AllMySatでSTARLINK-5611をリアルタイム追跡

Download on the App Store